Regional Weather Roundup
Issued by NWS Charleston, SC

Current Version | Previous Version | Text Only | Print | Product List | Glossary Off
Versions: 1 2 3 4 5 6 7 8 9 10 11 12 13 14 15 16 17 18 19 20 21 22 23 24 25 26 27 28 29 30 31 32 33 34 35 36 37 38 39 40 41 42 43 44 45 46 47 48 49 50
000 ASUS42 KCHS 250525 RWRCHS REGIONAL WEATHER ROUNDUP NATIONAL WEATHER SERVICE CHARLESTON SC 1200 AM EST SUN JAN 25 2015 NOTE: "FAIR" INDICATES FEW OR NO CLOUDS BELOW 12,000 FEET WITH NO SIGNIFICANT WEATHER AND/OR OBSTRUCTIONS TO VISIBILITY. NOT ALL STATIONS ARE QUALITY CONTROLLED BY THE NATIONAL WEATHER SERVICE. USE DATA WITH CAUTION...ESPECIALLY DEWPOINT OBSERVATIONS. SCZ027-030-031-034>040-042>050-250600- ...SOUTHEAST SOUTH CAROLINA... CITY SKY/WX TMP DP RH WIND PRES REMARKS N CHARLESTON CLEAR 43 32 65 W6 29.94R WATERFRONT PRK N/A 46 N/A N/A W8 N/A MOUNT PLEASANT LGT RAIN N/A N/A N/A W7 29.93R PINOPOLIS NOT AVBL MONCKS CORNER FAIR 41 34 75 CALM 29.93R SUMMERVILLE FAIR 39 34 81 SW3 29.94R BEAUFORT MCAS CLEAR 45 31 58 W10 29.94S BEAUFORT ARPT FAIR 45 34 65 W8G16 29.94S HILTON HEAD IS CLEAR 46 34 61 W5 29.96S WALTERBORO CLEAR 43 30 61 W5 29.93F ALLENDALE FAIR 43 28 56 VRB7 29.93F ...SOUTHERN MIDLANDS AND PEE DEE... CITY SKY/WX TMP DP RH WIND PRES REMARKS GEORGETOWN NOT AVBL KINGSTREE NOT AVBL ORANGEBURG CLEAR 41 28 60 W5 29.91S BARNWELL FAIR 39 32 75 SW7 29.93S WCI 34 AIKEN FAIR 39 30 70 W10 29.93S WCI 32 MANNING NOT AVBL COLUMBIA CLEAR 40 27 59 W7 29.90S WCI 35 SUMTER CLEAR 41 28 61 W8 29.88S FLORENCE CLEAR 39 33 79 W7 29.88R WCI 34 MYRTLE BEACH CLEAR 45 34 65 W10 29.91R N MYRTLE BEACH CLEAR 44 36 73 W6 29.88R $$ GAZ063-065-086>088-099>101-113>116-118-119-134>141-150-250600- ...SOUTHEAST GEORGIA... CITY SKY/WX TMP DP RH WIND PRES REMARKS SAVANNAH ARPT CLEAR 43 32 65 W8 29.96F HUNTER AAF CLEAR 41 34 75 W6 29.95S FORT STEWART CLEAR 42 33 69 W5 29.96S STATESBORO CLEAR 39 33 77 W6 29.96S WCI 35 SYLVANIA CLEAR 43 32 65 W8 29.95F CLAXTON FAIR 37 36 93 W5 29.98R WCI 34 ...CSRA...CENTRAL AND FAR SOUTHEAST GEORGIA... CITY SKY/WX TMP DP RH WIND PRES REMARKS THOMSON CLEAR 40 32 74 W5 30.00R WCI 36 AUGUSTA-BUSH CLEAR 43 26 51 W10 29.94S AUGUSTA-DANIEL CLEAR 45 26 47 W9 29.93S SWAINSBORO FAIR 41 27 56 NW7 29.98S VIDALIA CLEAR 43 32 65 W5 29.99R EASTMAN FAIR 40 33 76 NW3 30.01F HAZLEHURST FAIR 41 36 84 W3 29.98F ALMA CLEAR 42 33 70 W5 29.99S WAYCROSS CLEAR 43 38 82 W5 30.00R JESUP FAIR 41 37 87 NW3 29.98F BAXLEY FAIR 45 32 61 NW7 29.98F BRUNSWICK CLEAR 43 36 75 W6 30.00R SAINT SIMONS CLEAR 46 35 65 W7 29.98S $$ SCZ027-028-034-036>038-045-046-048>050-GAZ119-141-250600- ...LAKE AND SUPPLEMENTAL COASTAL OBSERVATIONS... STATION/POSITION TIME TEMP WIND PRES WAVE SWELL AIR SEA DIR/SP/G HT/PER HT/PER/DIR (UTC) (F) (DEG/KT/KT) (MB) (FT/S) (FT/S/D) UPR LAKE MARION NOT AVBL WINYAH BAY 0500 46 270/ 8 1011.0S LAKE MURRAY 0500 44 270/ 8/ 12 1011.5F ACE BASIN NERRS NOT AVBL FORT PULASKI 0500 48 54 270/ 11/ 13 1015.0R SAPELO ISLAND 0500 47 290/ 9 1015.0S $$ ANZ835-935-AMZ111-154-330-350-352-354-370-450-454-472-250600- ...C-MAN AND BUOY OBSERVATIONS... STATION/POSITION TIME TEMP WIND PRES WAVE SWELL AIR SEA DIR/SP/G HT/PER HT/PER/DIR (UTC) (F) (DEG/KT/KT) (MB) (FT/S) (FT/S/D) BUOY 41004 0500 55 70 290/ 23/ 29 1012.0R 8/ 8 5/ 8 BUOY 41008 0500 52 55 300/ 19/ 25 1014.0S 3/ 4 FOLLY BEACH CMAN 0500 47 270/ 6/ 8 1013.9R CAPERS NEARSHORE 0400 50 290/ 16/ 17 N/A FRIPP NEARSHORE 0400 51 280/ 14/ 16 N/A STATION/POSITION TIME TEMP WIND PRES WAVE SWELL AIR SEA DIR/SP/G HT/PER HT/PER/DIR (UTC) (F) (DEG/KT/KT) (MB) (FT/S) (FT/S/D) 5E ST. MARYS GA 0500 58 N/A 2/ 3 FRYING PAN BUOY 0500 56 66 270/ 21/ 25 1010.8R 8/10 7/180/10 BUOY 41025 0500 52 71 280/ 25/ 33 1007.3R 9/11 5/150/11 CAPE LOOKOUT NC 0500 48 280/ 17/ 19 1009.7R BUOY 41002 0355 64 72 300/ 23/ 29 1009.6R 15/10 BUOY 41010 0500 65 77 310/ 17/ 23 1013.9R 9/ 9 5/340/ 9 ST AUGUSTINE FL 0500 46 260/ 4/ 5 1016.8S $$

USA.gov is the U.S. government's official web portal to all federal, state and local government web resources and services.